Weather History for Safford, AZ

Change the Weather History Date:

Saturday, March 9, 2013

  Actual Average Record
Temperature  
Mean Temperature 44 °F -  
Max Temperature 50 °F 70 °F 86 °F (1972)
Min Temperature 37 °F 37 °F 19 °F (1964)
Degree Days  
Heating Degree Days 22    
Moisture  
Dew Point 34 °F    
Average Humidity 77    
Maximum Humidity 96    
Minimum Humidity 50    
Precipitation  
Precipitation 0.02 in - - ()
Sea Level Pressure  
Sea Level Pressure 29.97 in    
Wind  
Wind Speed 8 mph (WNW)    
Max Wind Speed 23 mph    
Max Gust Speed 31 mph    
Visibility 10 miles    
Events Rain    
Averages and records for this station are not official NWS values.
T = Trace of Precipitation, MM = Missing Value Source: NWS Daily Summary

Daily Weather History Graph

Daily Weather History Graph

Search for Another Location

Airport:

Trip Planner

Search our weather history database for the weather conditions in past years. The results will help you decide how hot, cold, wet, or windy it might be!

Date:

Astronomy

Mar. 09, 2013 Rise Set
Actual Time 6:36 AM MST 6:22 PM MST
Civil Twilight 6:11 AM MST 6:46 PM MST
Nautical Twilight 5:42 AM MST 7:15 PM MST
Astronomical Twilight 5:14 AM MST 7:44 PM MST
Moon 4:56 AM MST (3/9) 4:31 PM MST (3/9)
Length of Visible Light 12h 35m
Length of Day
11h 46m
Waning Crescent, 5% of the Moon is Illuminated
Mar 9
Waning Crescent
Mar 11
New
Mar 19
First Quarter
Mar 27
Full
Apr 2
Last Quarter

Hourly Weather History & Observations

Time (MST) Temp. Windchill Dew Point Humidity Pressure Visibility Wind Dir Wind Speed Gust Speed Precip Events Conditions
12:08 AM 41.0 °F 36.4 °F 35.6 °F 81% 29.95 in 10.0 mi West 6.9 mph 16.1 mph N/A   Mostly Cloudy
12:32 AM 37.4 °F 32.1 °F 35.6 °F 93% 29.95 in 10.0 mi WSW 6.9 mph - N/A   Scattered Clouds
12:51 AM 37.9 °F 32.7 °F 36.0 °F 93% 29.91 in 10.0 mi West 6.9 mph - N/A   Mostly Cloudy
1:24 AM 37.4 °F - 35.6 °F 93% 29.96 in 10.0 mi Calm Calm - N/A   Overcast
1:34 AM 37.4 °F - 35.6 °F 93% 29.96 in 10.0 mi Calm Calm - N/A   Overcast
1:51 AM 37.9 °F 35.5 °F 36.0 °F 93% 29.90 in 10.0 mi SSW 3.5 mph - N/A   Overcast
1:59 AM 39.2 °F - 35.6 °F 87% 29.95 in 10.0 mi Calm Calm - N/A   Overcast
2:51 AM 37.0 °F 31.6 °F 36.0 °F 96% 29.89 in 10.0 mi SSW 6.9 mph - N/A   Overcast
3:51 AM 37.0 °F 30.4 °F 34.0 °F 89% 29.88 in 10.0 mi WNW 9.2 mph - N/A   Mostly Cloudy
4:51 AM 37.0 °F 33.3 °F 34.0 °F 89% 29.92 in 10.0 mi WNW 4.6 mph - N/A   Overcast
5:04 AM 39.2 °F 32.0 °F 33.8 °F 81% 29.95 in 10.0 mi NW 11.5 mph - N/A   Overcast
5:51 AM 37.0 °F 29.8 °F 34.0 °F 89% 29.94 in 7.0 mi NW 10.4 mph 21.9 mph 0.01 in Rain Rain
6:02 AM 37.4 °F 30.3 °F 35.6 °F 93% 29.97 in 10.0 mi NNW 10.4 mph - 0.00 in Rain Light Rain
6:24 AM 37.4 °F 32.8 °F 35.6 °F 93% 29.98 in 10.0 mi North 5.8 mph - 0.01 in   Overcast
6:51 AM 37.9 °F 32.7 °F 34.0 °F 86% 29.95 in 10.0 mi WNW 6.9 mph - 0.01 in Rain Light Rain
7:51 AM 39.0 °F 34.0 °F 36.0 °F 89% 29.98 in 10.0 mi SW 6.9 mph - 0.00 in Rain Light Rain
8:51 AM 41.0 °F 36.4 °F 35.1 °F 79% 29.99 in 10.0 mi WSW 6.9 mph - 0.00 in   Overcast
9:51 AM 44.1 °F 39.0 °F 34.0 °F 68% 29.99 in 10.0 mi NW 9.2 mph - N/A   Mostly Cloudy
10:51 AM 46.0 °F 41.9 °F 32.0 °F 58% 29.98 in 10.0 mi West 8.1 mph - N/A   Overcast
11:51 AM 46.0 °F 40.2 °F 34.0 °F 63% 29.99 in 10.0 mi NW 12.7 mph - N/A   Overcast
12:51 PM 48.9 °F - 33.1 °F 54% 29.95 in 10.0 mi NW 15.0 mph 21.9 mph N/A   Overcast
1:51 PM 50.0 °F - 33.1 °F 52% 29.93 in 10.0 mi WNW 17.3 mph 25.3 mph N/A   Overcast
2:51 PM 48.0 °F - 36.0 °F 63% 29.94 in 10.0 mi NW 18.4 mph 24.2 mph 0.00 in Rain Light Rain
3:51 PM 50.0 °F - 32.0 °F 50% 29.95 in 10.0 mi WNW 23.0 mph 28.8 mph 0.00 in   Overcast
4:51 PM 48.0 °F - 33.1 °F 56% 29.97 in 10.0 mi NW 23.0 mph 31.1 mph 0.00 in Rain Light Rain
5:51 PM 45.0 °F 37.4 °F 35.1 °F 68% 30.00 in 10.0 mi NNW 18.4 mph - 0.00 in Rain Light Rain
6:51 PM 44.1 °F 37.1 °F 34.0 °F 68% 30.02 in 10.0 mi NNW 15.0 mph - 0.00 in   Overcast
7:51 PM 45.0 °F 37.6 °F 34.0 °F 65% 30.03 in 10.0 mi NNW 17.3 mph 24.2 mph N/A   Overcast
8:51 PM 43.0 °F 35.4 °F 34.0 °F 71% 30.03 in 10.0 mi NW 16.1 mph - N/A   Clear
9:51 PM 42.1 °F 38.4 °F 33.1 °F 70% 30.05 in 10.0 mi NW 5.8 mph - N/A   Mostly Cloudy
10:51 PM 39.9 °F 33.4 °F 33.1 °F 77% 30.04 in 10.0 mi NW 10.4 mph - N/A   Clear
11:51 PM 41.0 °F 33.1 °F 33.1 °F 73% 30.03 in 10.0 mi NW 15.0 mph - N/A   Clear